[[{"header":{"parameterUnit":"m.s-1","parameterCategory":1,"la1":30.2991,"la2":30.254,"lo1":-89.0895,"lo2":-89.0444,"dy":0.0017,"dx":0.0017,"nx":28,"ny":28,"refTime":"2026-02-03T03:00:00:Z","depth":0,"parameterNumber":2,"parameterNumberName":"U-component_of_WINDS"},"data":[0,0,0,0,0,0,0,0,0,0,0,0,0,0,0,0,0,0,0,0,0,0,0,0,0,0,0,0,0,0,0,0,0,0,0,0,0,0,0,0,0,0,0,0,0,0,0,0,0,0,0,0,0,0,0,0,0,0,0.7941,0.7942,0,0.8059,0.8061,0.8062,0.8093,0.8092,0.8092,0.8091,0.8217,0.8221,0.8225,0,0,0,0,0,0,0,0,0,0,0,0,0,0.7747,0.7751,0.7941,0.7942,0.7944,0.8059,0.8061,0.8062,0.8093,0.8092,0.8091,0.8091,0.8215,0.822,0.8225,0,0,0,0,0,0,0,0,0,0,0,0,0,0.7845,0.7752,0.794,0.7973,0.7977,0.8059,0.8061,0.8063,0.8093,0.8092,0.8091,0.809,0.8214,0.822,0.8226,0.8285,0,0,0.8244,0.8247,0,0,0,0,0,0,0,0,0.7839,0.7852,0.7967,0.7971,0.7976,0.806,0.8038,0.8137,0.8094,0.8049,0.8091,0.809,0.8166,0.8176,0.82,0.8291,0.8296,0.8245,0.8248,0.8251,0.8252,0,0,0,0,0,0,0,0.7833,0.7847,0.7988,0.7968,0.7974,0.7984,0.7996,0.8057,0.8112,0.8053,0.8056,0.8069,0.8168,0.8194,0.8204,0.8298,0.8244,0.825,0.8253,0.8256,0.8446,0.8447,0,0,0,0,0,0,0.782,0.7841,0.7984,0.7991,0.7903,0.7988,0.8002,0.8034,0.8112,0.8122,0.807,0.807,0.8185,0.8197,0.8208,0.8284,0.8251,0.8256,0.826,0.8444,0.8446,0.8447,0,0,0,0,0,0,0.7815,0.7832,0.7979,0.7917,0.7937,0.7992,0.8028,0.8037,0.8064,0.8124,0.8135,0.8086,0.8184,0.82,0.8266,0.8289,0.8259,0.8265,0.8442,0.8445,0.8447,0.8436,0,0,0,0,0,0,0.781,0.783,0.7852,0.7917,0.794,0.8033,0.803,0.804,0.8073,0.8075,0.8143,0.8153,0.8185,0.8257,0.8272,0.8297,0.8269,0.8441,0.8443,0.8446,0.8434,0.8437,0.844,0,0,0,0,0,0.7803,0.7844,0.7853,0.787,0.7967,0.8034,0.8047,0.8082,0.8075,0.8098,0.8138,0.8151,0.8284,0.8263,0.828,0.8308,0.8439,0.8443,0.8446,0.8433,0.8437,0.844,0,0,0,0,0,0,0.7781,0.7853,0.7863,0.7927,0.7974,0.8039,0.8069,0.8084,0.8135,0.8134,0.8176,0.8191,0.8255,0.8288,0.8263,0.837,0.8362,0.8369,0.8346,0.835,0.8353,0.8344,0.8274,0,0,0,0,0,0.7783,0.783,0.7891,0.7942,0.7965,0.8013,0.8043,0.8066,0.8117,0.8137,0.8181,0.8232,0.8285,0.832,0.8372,0.8439,0.8456,0.8467,0.8469,0.8471,0.8477,0.8518,0.8524,0.8458,0.8458,0.8458,0,0,0.7789,0.7835,0.7862,0.7939,0.7978,0.8027,0.803,0.8081,0.8119,0.8146,0.8211,0.8245,0.8304,0.8372,0.8404,0.8401,0.8499,0.8475,0.8476,0.8481,0.8522,0.8528,0.8533,0.846,0.846,0.8459,0,0,0.7826,0.7864,0.7911,0.795,0.8009,0.8041,0.8052,0.8116,0.8139,0.8205,0.8227,0.8273,0.8364,0.8406,0.8439,0.8493,0.8508,0.8509,0.8524,0.8563,0.8568,0.8573,0.8594,0.8601,0.8515,0.8515,0.8515,0,0.7826,0.7899,0.7934,0.7984,0.8019,0.8045,0.8094,0.8131,0.8205,0.8229,0.8224,0.834,0.8382,0.846,0.8474,0.8499,0.8515,0.8502,0.8564,0.8569,0.8575,0.8595,0.8603,0.8514,0.8514,0.8514,0.8514,0,0.7898,0.7948,0.798,0.8049,0.8087,0.8137,0.8181,0.8216,0.8236,0.8269,0.8337,0.8388,0.8452,0.8473,0.8492,0.8555,0.8552,0.8555,0.8548,0.858,0.86,0.8609,0.8514,0.8514,0.8514,0.8514,0,0,0.7923,0.8012,0.8023,0.8055,0.8123,0.8164,0.8216,0.8278,0.8308,0.8358,0.8405,0.8482,0.8486,0.8524,0.8549,0.8583,0.8625,0.8583,0.8585,0.859,0.87,0.8698,0.8706,0.8635,0.8637,0.8638,0.8696,0,0.7968,0.8061,0.8094,0.8171,0.822,0.8247,0.8293,0.834,0.8373,0.8421,0.8458,0.8513,0.8513,0.8536,0.8571,0.8613,0.8648,0.8609,0.8681,0.8683,0.8666,0.8717,0.8714,0.8766,0.8704,0.8705,0.8706,0,0.8034,0.8084,0.8166,0.8229,0.8251,0.8291,0.8352,0.8396,0.8452,0.8474,0.8517,0.854,0.8599,0.8587,0.867,0.8642,0.8674,0.8699,0.8702,0.8711,0.8697,0.8728,0.8783,0.8791,0.8719,0.8718,0.8717,0,0.8046,0.8134,0.8195,0.8222,0.8297,0.8326,0.8359,0.8413,0.8449,0.8502,0.8527,0.8586,0.862,0.8667,0.8707,0.8694,0.8787,0.8778,0.8808,0.8807,0.8827,0.8825,0.8889,0.8845,0.8845,0.8845,0.8845,0,0.8094,0.8143,0.8202,0.8239,0.8296,0.8335,0.8391,0.8426,0.8475,0.8522,0.8548,0.8592,0.8641,0.8692,0.8724,0.8789,0.8803,0.8824,0.8833,0.8823,0.882,0.8845,0.8843,0.8847,0.8847,0.8846,0.8846,0,0.8117,0.8157,0.8226,0.8292,0.831,0.8349,0.8406,0.8445,0.848,0.8539,0.8555,0.861,0.8671,0.8715,0.8795,0.8816,0.8886,0.8894,0.8867,0.8871,0.89,0.8897,0.8982,0.8996,0.8942,0.8942,0.8943,0,0.8145,0.8183,0.8253,0.8286,0.8319,0.837,0.8407,0.8448,0.8486,0.8553,0.8585,0.8648,0.87,0.8797,0.8846,0.8907,0.8917,0.8943,0.8927,0.8916,0.892,0.8917,0.8923,0.8945,0.8946,0.8946,0.8946,0,0.8191,0.821,0.8261,0.8319,0.8362,0.8411,0.846,0.8485,0.8536,0.8577,0.8639,0.868,0.8761,0.8824,0.8891,0.8928,0.8947,0.8951,0.8962,0.8952,0.8936,0.8947,0.8875,0.8949,0.8949,0.8949,0.8948,0.8948,0.8219,0.8255,0.831,0.8367,0.8408,0.8454,0.8494,0.8534,0.8586,0.8654,0.8676,0.8741,0.8799,0.8891,0.8928,0.8981,0.8981,0.8996,0.9,0.9003,0.9003,0.8926,0.8994,0.8994,0.8994,0.8994,0.8994,0,0.8268,0.8305,0.8356,0.8424,0.8469,0.8482,0.8537,0.8575,0.8632,0.8683,0.8734,0.8808,0.887,0.8923,0.8988,0.9021,0.9031,0.9036,0.9035,0.9044,0.8999,0.8984,0.9027,0.9027,0.9027,0.9027,0.9027,0.9027,0.8299,0.8361,0.8387,0.8471,0.8509,0.8572,0.8603,0.8647,0.8688,0.8768,0.8819,0.8853,0.8907,0.8976,0.9034,0.9049,0.9072,0.9076,0.9093,0.905,0.9047,0.9043,0.9029,0.908,0.908,0.9133,0.9133,0.9134]},{"header":{"parameterUnit":"m.s-1","parameterCategory":1,"la1":30.2991,"la2":30.254,"lo1":-89.0895,"lo2":-89.0444,"dy":0.0017,"dx":0.0017,"nx":28,"ny":28,"refTime":"2026-02-03T03:00:00:Z","depth":0,"parameterNumber":3,"parameterNumberName":"V-component_of_WINDS"},"data":[0,0,0,0,0,0,0,0,0,0,0,0,0,0,0,0,0,0,0,0,0,0,0,0,0,0,0,0,0,0,0,0,0,0,0,0,0,0,0,0,0,0,0,0,0,0,0,0,0,0,0,0,0,0,0,0,0,0,2.3332,2.3334,0,2.3524,2.3526,2.3529,2.3586,2.3585,2.3584,2.3583,2.3784,2.379,2.3797,0,0,0,0,0,0,0,0,0,0,0,0,0,2.3021,2.3026,2.3332,2.3334,2.3337,2.3524,2.3527,2.3529,2.3587,2.3585,2.3584,2.3583,2.3782,2.379,2.3797,0,0,0,0,0,0,0,0,0,0,0,0,0,2.3179,2.3028,2.3332,2.3388,2.3395,2.3523,2.3527,2.353,2.3587,2.3585,2.3584,2.3582,2.378,2.3789,2.3798,2.3886,0,0,2.3827,2.3831,0,0,0,0,0,0,0,0,2.317,2.319,2.3377,2.3384,2.3392,2.353,2.3491,2.3649,2.3587,2.3514,2.3583,2.3582,2.3701,2.3717,2.3756,2.3895,2.3904,2.3828,2.3834,2.3838,2.384,0,0,0,0,0,0,0,2.3159,2.3182,2.3408,2.338,2.3389,2.3406,2.3426,2.3521,2.3614,2.352,2.3525,2.3547,2.3705,2.3747,2.3761,2.3907,2.3828,2.3836,2.3842,2.3845,2.4132,2.4134,0,0,0,0,0,0,2.3138,2.3173,2.3402,2.3414,2.3275,2.3412,2.3436,2.3487,2.3613,2.363,2.3548,2.3549,2.3732,2.375,2.3769,2.3883,2.3837,2.3846,2.3852,2.413,2.4133,2.4135,0,0,0,0,0,0,2.3131,2.3157,2.3394,2.3295,2.3326,2.3419,2.3477,2.3492,2.3534,2.3633,2.3651,2.3573,2.3731,2.3756,2.3857,2.3891,2.3851,2.3859,2.4128,2.4131,2.4134,2.411,0,0,0,0,0,0,2.3122,2.3155,2.3187,2.3295,2.3331,2.3478,2.3479,2.3497,2.355,2.3553,2.3662,2.3679,2.3732,2.3843,2.3866,2.3903,2.3866,2.4125,2.4129,2.4133,2.4108,2.4112,2.4115,0,0,0,0,0,2.311,2.3173,2.3189,2.3216,2.3374,2.3479,2.35,2.3559,2.3552,2.3587,2.3651,2.3675,2.3882,2.3853,2.388,2.392,2.4124,2.4128,2.4133,2.4107,2.4111,2.4115,0,0,0,0,0,0,2.3067,2.3188,2.3207,2.3306,2.3382,2.3489,2.3534,2.3561,2.3642,2.3641,2.3712,2.3736,2.3834,2.3887,2.3851,2.4013,2.4004,2.4014,2.3975,2.398,2.3983,2.397,2.3874,0,0,0,0,0,2.3069,2.3143,2.3245,2.3323,2.336,2.344,2.3488,2.3527,2.3609,2.3642,2.3714,2.3794,2.3878,2.3932,2.4014,2.4115,2.4143,2.4157,2.416,2.4162,2.4171,2.4233,2.4241,2.415,2.4149,2.4149,0,0,2.3074,2.3149,2.3192,2.3316,2.338,2.3457,2.3467,2.3548,2.3607,2.3655,2.3756,2.3811,2.3906,2.4009,2.4058,2.4056,2.4202,2.4168,2.4169,2.4177,2.4238,2.4247,2.4254,2.4153,2.4152,2.4152,0,0,2.3124,2.3186,2.326,2.3323,2.3419,2.3473,2.349,2.3594,2.3633,2.3735,2.3774,2.3846,2.3987,2.4054,2.4107,2.4184,2.4211,2.4209,2.4227,2.4286,2.4294,2.4301,2.4332,2.4342,2.4217,2.4217,2.4217,0,2.3118,2.3235,2.3294,2.3374,2.3429,2.3475,2.3552,2.3611,2.373,2.3768,2.3764,2.3945,2.4011,2.4133,2.4152,2.4191,2.4217,2.4198,2.4287,2.4295,2.4302,2.4333,2.4344,2.4216,2.4216,2.4216,2.4216,0,2.3225,2.3306,2.3354,2.3467,2.3527,2.3605,2.3678,2.3733,2.3767,2.3821,2.3927,2.4009,2.411,2.4141,2.4175,2.4269,2.4265,2.4273,2.4266,2.4309,2.434,2.4352,2.4215,2.4215,2.4216,2.4216,0,0,2.3253,2.3399,2.3416,2.3469,2.358,2.3644,2.3725,2.3823,2.3871,2.3951,2.4023,2.4143,2.4152,2.4212,2.4254,2.4305,2.4367,2.4308,2.4312,2.4319,2.448,2.4475,2.4487,2.4384,2.4386,2.4388,2.4473,0,2.3319,2.3464,2.3522,2.3641,2.3718,2.3765,2.3836,2.3913,2.3967,2.4042,2.4102,2.4187,2.4191,2.4228,2.4281,2.4348,2.44,2.4342,2.4455,2.4459,2.4433,2.4502,2.4497,2.4573,2.4485,2.4487,2.4488,0,2.3415,2.3497,2.3624,2.3728,2.3762,2.3825,2.3922,2.3992,2.4081,2.4117,2.4185,2.4224,2.4314,2.43,2.4427,2.4386,2.4436,2.4476,2.448,2.4496,2.4478,2.4523,2.4598,2.461,2.4507,2.4505,2.4504,0,2.3427,2.3568,2.3664,2.3707,2.383,2.3874,2.3927,2.4015,2.4071,2.4156,2.4195,2.4289,2.4341,2.4414,2.448,2.4462,2.4602,2.4592,2.4638,2.4636,2.4667,2.4665,2.4755,2.4694,2.4694,2.4693,2.4693,0,2.3496,2.3573,2.3671,2.373,2.3819,2.3884,2.3971,2.4028,2.4106,2.4179,2.4224,2.4292,2.4373,2.4452,2.4503,2.4603,2.4626,2.466,2.4673,2.4658,2.4654,2.4693,2.4691,2.4696,2.4696,2.4695,2.4695,0,2.3525,2.3593,2.3701,2.3808,2.3837,2.3898,2.3992,2.4052,2.4108,2.4201,2.4226,2.4315,2.4411,2.4483,2.4607,2.4642,2.4749,2.4761,2.4719,2.4726,2.4769,2.4766,2.489,2.4912,2.4833,2.4833,2.4834,0,2.3566,2.3627,2.3741,2.3792,2.3846,2.3928,2.3986,2.4054,2.4113,2.4221,2.427,2.4368,2.4451,2.4603,2.468,2.4777,2.4794,2.4831,2.4808,2.4792,2.4799,2.4796,2.4804,2.4834,2.4835,2.4835,2.4836,0,2.3633,2.3664,2.3745,2.384,2.3908,2.3986,2.4064,2.4104,2.4187,2.4252,2.435,2.4414,2.4542,2.4641,2.4745,2.4803,2.4835,2.4842,2.4858,2.4844,2.4819,2.4837,2.4731,2.4839,2.4839,2.4839,2.4838,2.4838,2.3672,2.3729,2.3819,2.391,2.3976,2.4049,2.4112,2.4176,2.4259,2.4367,2.4403,2.4505,2.4597,2.474,2.48,2.4883,2.4883,2.4905,2.4912,2.4917,2.4918,2.4803,2.4902,2.4902,2.4902,2.4902,2.4902,0,2.3744,2.3805,2.3887,2.3996,2.4068,2.4089,2.4178,2.4238,2.4327,2.4409,2.449,2.4605,2.4702,2.4787,2.4888,2.4939,2.4956,2.4964,2.4962,2.4976,2.491,2.4888,2.4948,2.4948,2.4948,2.4948,2.4948,2.4948,2.3791,2.389,2.3932,2.4066,2.4127,2.4227,2.4276,2.4345,2.4411,2.4537,2.4618,2.4672,2.4757,2.4866,2.4957,2.498,2.5017,2.5021,2.5048,2.4986,2.498,2.4975,2.4954,2.5028,2.5028,2.5107,2.5108,2.5109]}]]